Orbital Elements at Epoch 2459200.5 (2020-Dec-17.0) TDB
Reference: JPL 17 (heliocentric ecliptic J2000)
Element | Value | Uncertainty (1-sigma) | Units |
e | .2122598793773828 | 3.5338e-08 | |
a | 3.109403019741527 | 2.9322e-08 | au |
q | 2.44940150983552 | 1.1178e-07 | au |
i | 18.13296384428967 | 6.145e-06 | deg |
node | 45.10814358171321 | 1.4126e-05 | deg |
peri | 224.2897364088286 | 2.2443e-05 | deg |
M | 68.3387248746332 | 1.5356e-05 | deg |
tp | 2458820.329581243211 (2019-Dec-02.82958124) | 8.6556e-05 | TDB |
period | 2002.691021869593 5.48 | 2.8328e-05 7.756e-08 | d yr |
n | .1797581334658032 | 2.5427e-09 | deg/d |
Q | 3.769404529647533 | 3.5545e-08 | au |
|
| | Orbit Determination Parameters
Additional Information
|